TimePDT,TemperatureF,Dew PointF,Humidity,Sea Level PressureIn,VisibilityMPH,Wind Direction,Wind SpeedMPH,Gust SpeedMPH,PrecipitationIn,Events,Conditions,WindDirDegrees,DateUTC
12:25 AM,50.0,44.6,82,29.79,10.0,North,3.5,-,N/A,,Overcast,350,2012-10-22 07:25:00
12:56 AM,50.0,46.0,86,29.76,10.0,Calm,Calm,-,0.00,Rain,Light Rain,0,2012-10-22 07:56:00
1:12 AM,50.0,44.6,82,29.77,10.0,NW,3.5,-,0.00,Rain,Light Rain,320,2012-10-22 08:12:00
1:56 AM,48.9,46.0,90,29.74,6.0,Variable,3.5,-,0.02,Rain,Light Rain,0,2012-10-22 08:56:00
2:56 AM,50.0,46.9,89,29.72,5.0,Variable,6.9,-,0.07,Rain,Rain,0,2012-10-22 09:56:00
3:07 AM,50.0,46.4,87,29.73,5.0,South,5.8,-,0.03,Rain,Rain,170,2012-10-22 10:07:00
4:56 AM,50.0,48.9,96,29.69,5.0,SE,8.1,-,0.19,Rain,Light Rain,130,2012-10-22 11:56:00
5:08 AM,50.0,48.2,94,29.71,10.0,SW,6.9,-,0.01,Rain,Light Rain,230,2012-10-22 12:08:00
6:45 AM,50.0,48.2,94,29.74,10.0,South,3.5,-,N/A,,Overcast,170,2012-10-22 13:45:00
7:56 AM,50.0,48.0,93,29.74,10.0,Calm,Calm,-,N/A,,Partly Cloudy,0,2012-10-22 14:56:00
8:15 AM,48.2,48.2,100,29.76,10.0,Calm,Calm,-,N/A,,Scattered Clouds,0,2012-10-22 15:15:00
8:56 AM,51.1,48.9,92,29.77,10.0,Calm,Calm,-,N/A,,Overcast,0,2012-10-22 15:56:00
9:05 AM,51.8,48.2,88,29.78,10.0,Calm,Calm,-,N/A,,Overcast,0,2012-10-22 16:05:00
9:56 AM,52.0,46.9,83,29.79,10.0,SE,3.5,-,N/A,,Mostly Cloudy,140,2012-10-22 16:56:00
10:56 AM,54.0,46.0,75,29.80,10.0,Calm,Calm,-,N/A,,Mostly Cloudy,0,2012-10-22 17:56:00
11:56 AM,55.9,41.0,57,29.81,10.0,Variable,4.6,-,0.00,,Partly Cloudy,0,2012-10-22 18:56:00
12:56 PM,55.0,45.0,69,29.82,10.0,SSW,6.9,-,0.01,,Mostly Cloudy,210,2012-10-22 19:56:00
1:56 PM,55.9,42.1,60,29.81,10.0,Calm,Calm,-,N/A,,Mostly Cloudy,0,2012-10-22 20:56:00
2:56 PM,55.9,39.0,53,29.80,10.0,West,8.1,16.1,0.00,Rain,Light Rain,260,2012-10-22 21:56:00
3:31 PM,50.0,42.8,76,29.84,2.5,West,4.6,17.3,0.07,Rain,Rain,270,2012-10-22 22:31:00
4:56 PM,50.0,46.0,86,29.83,10.0,South,6.9,-,0.00,,Overcast,180,2012-10-22 23:56:00
5:24 PM,50.0,44.6,82,29.83,10.0,South,5.8,-,N/A,,Overcast,170,2012-10-23 00:24:00
5:40 PM,50.0,44.6,82,29.82,10.0,SSE,6.9,-,N/A,,Overcast,160,2012-10-23 00:40:00
5:56 PM,50.0,44.1,80,29.82,10.0,SSE,4.6,-,N/A,,Overcast,160,2012-10-23 00:56:00
6:56 PM,48.9,43.0,80,29.83,10.0,South,5.8,-,N/A,,Mostly Cloudy,170,2012-10-23 01:56:00
7:56 PM,50.0,43.0,77,29.84,10.0,South,6.9,-,0.00,,Mostly Cloudy,170,2012-10-23 02:56:00
8:40 PM,48.2,42.8,82,29.86,10.0,North,8.1,-,N/A,,Overcast,10,2012-10-23 03:40:00
8:56 PM,46.0,43.0,89,29.86,3.0,NNE,5.8,-,0.06,Rain,Rain,20,2012-10-23 03:56:00
9:05 PM,46.4,42.8,87,29.87,9.0,Variable,3.5,-,0.01,Rain,Light Rain,0,2012-10-23 04:05:00
9:56 PM,46.0,43.0,89,29.88,10.0,Calm,Calm,-,0.03,Rain,Light Rain,0,2012-10-23 04:56:00
10:56 PM,46.0,43.0,89,29.89,10.0,Calm,Calm,-,0.00,,Mostly Cloudy,0,2012-10-23 05:56:00
11:56 PM,45.0,43.0,93,29.91,10.0,Calm,Calm,-,N/A,,Mostly Cloudy,0,2012-10-23 06:56:00